Time,TemperatureF,DewpointF,PressureIn,WindDirection,WindDirectionDegrees,WindSpeedMPH,WindSpeedGustMPH,Humidity,HourlyPrecipIn,Conditions,Clouds,dailyrainin,SoftwareType,DateUTC
2013-01-28 00:01:00,38.0,-99.9,-100.00,WSW,253,23.0,24.0,-999,-99.99,,,-99.99,,2013-01-28 08:01:00,
2013-01-28 00:40:00,37.0,-99.9,-100.00,WSW,250,22.0,32.0,-999,-99.99,,,-99.99,,2013-01-28 08:40:00,
2013-01-28 00:53:00,38.0,-99.9,-100.00,SW,229,16.0,30.0,-999,-99.99,,,-99.99,,2013-01-28 08:53:00,
2013-01-28 01:02:00,38.0,-99.9,-100.00,SW,229,16.0,30.0,-999,-99.99,,,-99.99,,2013-01-28 09:02:00,
2013-01-28 01:12:00,38.0,-99.9,-100.00,SW,229,16.0,30.0,-999,-99.99,,,-99.99,,2013-01-28 09:12:00,
2013-01-28 01:22:00,37.0,-99.9,-100.00,WSW,250,22.0,32.0,-999,-99.99,,,-99.99,,2013-01-28 09:22:00,
2013-01-28 01:33:00,37.0,-99.9,-100.00,WSW,250,22.0,32.0,-999,-99.99,,,-99.99,,2013-01-28 09:33:00,
2013-01-28 01:40:00,36.0,-99.9,-100.00,West,259,19.0,27.0,-999,-99.99,,,-99.99,,2013-01-28 09:40:00,
2013-01-28 02:21:00,36.0,-99.9,-100.00,West,259,19.0,27.0,-999,-99.99,,,-99.99,,2013-01-28 10:21:00,
2013-01-28 02:32:00,36.0,-99.9,-100.00,West,259,19.0,27.0,-999,-99.99,,,-99.99,,2013-01-28 10:32:00,
2013-01-28 02:40:00,36.0,-99.9,-100.00,West,270,17.0,21.0,-999,-99.99,,,-99.99,,2013-01-28 10:40:00,
2013-01-28 03:22:00,36.0,-99.9,-100.00,West,270,17.0,21.0,-999,-99.99,,,-99.99,,2013-01-28 11:22:00,
2013-01-28 03:33:00,36.0,-99.9,-100.00,West,270,17.0,21.0,-999,-99.99,,,-99.99,,2013-01-28 11:33:00,
2013-01-28 04:23:00,37.0,-99.9,-100.00,SSE,161,7.0,10.0,-999,-99.99,,,-99.99,,2013-01-28 12:23:00,
2013-01-28 04:33:00,36.0,-99.9,-100.00,ENE,78,3.0,12.0,-999,-99.99,,,-99.99,,2013-01-28 12:33:00,
2013-01-28 04:43:00,36.0,-99.9,-100.00,ENE,78,3.0,12.0,-999,-99.99,,,-99.99,,2013-01-28 12:43:00,
2013-01-28 04:53:00,36.0,-99.9,-100.00,ENE,78,3.0,12.0,-999,-99.99,,,-99.99,,2013-01-28 12:53:00,
2013-01-28 05:34:00,37.0,-99.9,-100.00,East,96,12.0,12.0,-999,-99.99,,,-99.99,,2013-01-28 13:34:00,
2013-01-28 05:43:00,37.0,-99.9,-100.00,East,96,12.0,12.0,-999,-99.99,,,-99.99,,2013-01-28 13:43:00,
2013-01-28 05:53:00,37.0,-99.9,-100.00,East,96,12.0,12.0,-999,-99.99,,,-99.99,,2013-01-28 13:53:00,
2013-01-28 06:33:00,36.0,-99.9,-100.00,WSW,246,8.0,11.0,-999,-99.99,,,-99.99,,2013-01-28 14:33:00,
2013-01-28 06:43:00,36.0,-99.9,-100.00,WSW,246,8.0,11.0,-999,-99.99,,,-99.99,,2013-01-28 14:43:00,
2013-01-28 06:53:00,36.0,-99.9,-100.00,WSW,246,8.0,11.0,-999,-99.99,,,-99.99,,2013-01-28 14:53:00,
2013-01-28 07:34:00,36.0,-99.9,-100.00,West,275,14.0,15.0,-999,-99.99,,,-99.99,,2013-01-28 15:34:00,
2013-01-28 07:44:00,36.0,-99.9,-100.00,West,275,14.0,15.0,-999,-99.99,,,-99.99,,2013-01-28 15:44:00,
2013-01-28 07:54:00,36.0,-99.9,-100.00,West,275,14.0,15.0,-999,-99.99,,,-99.99,,2013-01-28 15:54:00,
2013-01-28 08:33:00,38.0,-99.9,-100.00,ESE,109,3.0,12.0,-999,-99.99,,,-99.99,,2013-01-28 16:33:00,
2013-01-28 08:43:00,38.0,-99.9,-100.00,ESE,109,3.0,12.0,-999,-99.99,,,-99.99,,2013-01-28 16:43:00,
2013-01-28 08:53:00,38.0,-99.9,-100.00,ESE,109,3.0,12.0,-999,-99.99,,,-99.99,,2013-01-28 16:53:00,
2013-01-28 09:33:00,37.0,-99.9,-100.00,WSW,257,19.0,29.0,-999,-99.99,,,-99.99,,2013-01-28 17:33:00,
2013-01-28 09:42:00,37.0,-99.9,-100.00,WSW,257,19.0,29.0,-999,-99.99,,,-99.99,,2013-01-28 17:42:00,
2013-01-28 09:53:00,37.0,-99.9,-100.00,WSW,257,19.0,29.0,-999,-99.99,,,-99.99,,2013-01-28 17:53:00,
2013-01-28 10:33:00,36.0,-99.9,-100.00,West,263,16.0,20.0,-999,-99.99,,,-99.99,,2013-01-28 18:33:00,
2013-01-28 10:43:00,36.0,-99.9,-100.00,West,263,16.0,20.0,-999,-99.99,,,-99.99,,2013-01-28 18:43:00,
2013-01-28 10:53:00,36.0,-99.9,-100.00,West,263,16.0,20.0,-999,-99.99,,,-99.99,,2013-01-28 18:53:00,
2013-01-28 11:33:00,39.0,-99.9,-100.00,WSW,258,10.0,26.0,-999,-99.99,,,-99.99,,2013-01-28 19:33:00,
2013-01-28 11:43:00,39.0,-99.9,-100.00,WSW,258,10.0,26.0,-999,-99.99,,,-99.99,,2013-01-28 19:43:00,
2013-01-28 11:53:00,39.0,-99.9,-100.00,WSW,258,10.0,26.0,-999,-99.99,,,-99.99,,2013-01-28 19:53:00,
2013-01-28 12:33:00,39.0,-99.9,-100.00,WNW,286,18.0,33.0,-999,-99.99,,,-99.99,,2013-01-28 20:33:00,
2013-01-28 12:43:00,39.0,-99.9,-100.00,WNW,286,18.0,33.0,-999,-99.99,,,-99.99,,2013-01-28 20:43:00,
2013-01-28 12:53:00,39.0,-99.9,-100.00,WNW,286,18.0,33.0,-999,-99.99,,,-99.99,,2013-01-28 20:53:00,
2013-01-28 13:34:00,40.0,-99.9,-100.00,West,271,31.0,31.0,-999,-99.99,,,-99.99,,2013-01-28 21:34:00,
2013-01-28 13:43:00,40.0,-99.9,-100.00,West,271,31.0,31.0,-999,-99.99,,,-99.99,,2013-01-28 21:43:00,
2013-01-28 13:53:00,40.0,-99.9,-100.00,West,271,31.0,31.0,-999,-99.99,,,-99.99,,2013-01-28 21:53:00,
2013-01-28 14:33:00,40.0,-99.9,-100.00,West,278,29.0,35.0,-999,-99.99,,,-99.99,,2013-01-28 22:33:00,
2013-01-28 14:43:00,40.0,-99.9,-100.00,West,278,29.0,35.0,-999,-99.99,,,-99.99,,2013-01-28 22:43:00,
2013-01-28 14:53:00,40.0,-99.9,-100.00,West,278,29.0,35.0,-999,-99.99,,,-99.99,,2013-01-28 22:53:00,
2013-01-28 15:33:00,39.0,-99.9,-100.00,WSW,237,18.0,35.0,-999,-99.99,,,-99.99,,2013-01-28 23:33:00,
2013-01-28 15:42:00,39.0,-99.9,-100.00,WSW,237,18.0,35.0,-999,-99.99,,,-99.99,,2013-01-28 23:42:00,
2013-01-28 15:53:00,39.0,-99.9,-100.00,WSW,237,18.0,35.0,-999,-99.99,,,-99.99,,2013-01-28 23:53:00,
2013-01-28 16:20:00,39.0,-99.9,-100.00,West,265,19.0,20.0,-999,-99.99,,,-99.99,,2013-01-29 00:20:00,
2013-01-28 16:33:00,39.0,-99.9,-100.00,West,268,18.0,26.0,-999,-99.99,,,-99.99,,2013-01-29 00:33:00,
2013-01-28 16:42:00,39.0,-99.9,-100.00,West,268,18.0,26.0,-999,-99.99,,,-99.99,,2013-01-29 00:42:00,
2013-01-28 16:52:00,39.0,-99.9,-100.00,West,268,18.0,26.0,-999,-99.99,,,-99.99,,2013-01-29 00:52:00,
2013-01-28 17:02:00,39.0,-99.9,-100.00,West,265,19.0,20.0,-999,-99.99,,,-99.99,,2013-01-29 01:02:00,
2013-01-28 17:12:00,39.0,-99.9,-100.00,West,265,19.0,20.0,-999,-99.99,,,-99.99,,2013-01-29 01:12:00,
2013-01-28 18:02:00,36.0,-99.9,-100.00,West,274,31.0,32.0,-999,-99.99,,,-99.99,,2013-01-29 02:02:00,
2013-01-28 18:12:00,36.0,-99.9,-100.00,West,274,31.0,32.0,-999,-99.99,,,-99.99,,2013-01-29 02:12:00,
2013-01-28 18:22:00,37.0,-99.9,-100.00,West,267,21.0,35.0,-999,-99.99,,,-99.99,,2013-01-29 02:22:00,
2013-01-28 18:33:00,37.0,-99.9,-100.00,West,267,21.0,35.0,-999,-99.99,,,-99.99,,2013-01-29 02:33:00,
2013-01-28 18:53:00,37.0,-99.9,-100.00,WSW,245,11.0,29.0,-999,-99.99,,,-99.99,,2013-01-29 02:53:00,
2013-01-28 19:03:00,37.0,-99.9,-100.00,WSW,252,19.0,29.0,-999,-99.99,,,-99.99,,2013-01-29 03:03:00,
2013-01-28 19:12:00,37.0,-99.9,-100.00,WSW,252,19.0,29.0,-999,-99.99,,,-99.99,,2013-01-29 03:12:00,
2013-01-28 19:20:00,37.0,-99.9,-100.00,WNW,284,16.0,30.0,-999,-99.99,,,-99.99,,2013-01-29 03:20:00,
2013-01-28 20:03:00,37.0,-99.9,-100.00,WNW,284,16.0,30.0,-999,-99.99,,,-99.99,,2013-01-29 04:03:00,
2013-01-28 20:12:00,37.0,-99.9,-100.00,WNW,284,16.0,30.0,-999,-99.99,,,-99.99,,2013-01-29 04:12:00,
2013-01-28 20:20:00,36.0,-99.9,-100.00,West,274,17.0,22.0,-999,-99.99,,,-99.99,,2013-01-29 04:20:00,
2013-01-28 20:50:00,37.0,-99.9,-100.00,West,276,23.0,23.0,-999,-99.99,,,-99.99,,2013-01-29 04:50:00,
2013-01-28 21:04:00,36.0,-99.9,-100.00,West,274,17.0,22.0,-999,-99.99,,,-99.99,,2013-01-29 05:04:00,
2013-01-28 21:12:00,36.0,-99.9,-100.00,West,274,17.0,22.0,-999,-99.99,,,-99.99,,2013-01-29 05:12:00,
2013-01-28 21:32:00,37.0,-99.9,-100.00,West,276,23.0,23.0,-999,-99.99,,,-99.99,,2013-01-29 05:32:00,
2013-01-28 21:43:00,37.0,-99.9,-100.00,West,276,23.0,23.0,-999,-99.99,,,-99.99,,2013-01-29 05:43:00,
2013-01-28 22:22:00,36.0,-99.9,-100.00,SW,230,16.0,17.0,-999,-99.99,,,-99.99,,2013-01-29 06:22:00,
2013-01-28 22:32:00,40.0,-99.9,-100.00,NW,311,21.0,27.0,-999,-99.99,,,-99.99,,2013-01-29 06:32:00,
2013-01-28 22:42:00,40.0,-99.9,-100.00,NW,311,21.0,27.0,-999,-99.99,,,-99.99,,2013-01-29 06:42:00,
2013-01-28 22:52:00,40.0,-99.9,-100.00,NW,311,21.0,27.0,-999,-99.99,,,-99.99,,2013-01-29 06:52:00,
2013-01-28 23:02:00,43.0,-99.9,-100.00,NW,314,13.0,38.0,-999,-99.99,,,-99.99,,2013-01-29 07:02:00,
2013-01-28 23:30:00,38.0,-99.9,-100.00,NW,315,19.0,21.0,-999,-99.99,,,-99.99,,2013-01-29 07:30:00,